THOR ABLESTAR DEB, 967

Orbit data source: Space-Track

THOR ABLESTAR DEB, 967 is space debris in LEO originally from a launch on Sun, 13 Dec 1964 UTC launched from the Air Force Western Test Range (AFWTR). Debris objects in space refer to the collection of defunct objects orbiting the Earth. Examples of debris include non-operational satellites, rocket bodies, and fragments generated from explosions, collisions, or faulty payload assembly.

Loading next visibility...
THOR ABLESTAR DEB details
Identifier
967, 1964-083F
Orbit
LEO
Last TLE update10 hours ago
Origin
Flag of USUSN BuWeps (US)
ManufacturerUnknown
MissionSpacecraft
Bus & MotorUnknown
MassUnknown
Launch date (UTC)
1964-12-13 (60 years ago)
Launch vehicleUnknown
Launch site
Air Force Western Test Range (AFWTR)
Object type
Payload
Rocket body
Debris
Shape & HBRUnknown
Radar Cross SectionSmall (<0.1 m²)

Expand to show TLE details & history

TLE from 10 hours ago
0 THOR ABLESTAR DEB
1 00967U 64083F   25013.97356758  .00000404  00000-0  46997-3 0  9990
2 00967  89.9525 176.2730 0023474 136.2621 354.3502 13.67078472985097
Epoch: 2025-01-13T23:21Z
Definitive object data (Epoch: 2025-01-13T23:21:56.238Z)
Latitude49.50866°
Longitude-107.9536°
Altitude1,000.736 km
Speed7.365 km/s
True Right ascension23h 44m 52s
True Declination49° 20' 40"
Sunlit
Object was in daylight at TLE epoch
Visualization TLE readout
Latitude81.27395°
Longitude72.4075°
Altitude1,013.359 km
Speed7.357 km/s
Apparent Right ascension21h 50m 20s
Apparent Declination39° 35' 54"
Sunlit
Object is in daylight
Visualization observer readout
Local Sidereal Time10:15:54
Azimuth4.998° NNE
Elevation-10.272°
Doppler factor1
Orbital elements
Apogee altitude1,024.439 km
Perigee altitude989.767 km
Semi-major axis7,385.24 km
Eccentricity0.0023474
Inclination89.9525°
RAAN176.273°
Arg. of periapsis136.2621°
True anomaly354.32364°
Mean anomaly354.3502°
Eccentric anomaly354.33693°
Mean motion3.41976 °/min
BSTAR0.00046997
Orbital period105.27 mins
Loading maneuver chart data...

THOR ABLESTAR DEB Visibility forecast

Observer location: undefined°, undefined

Span
Click to sort rows by Start time (UTC) header in descending order
Start Az.
Max El. time (UTC)
Max El. Az.
Max El.
End time (UTC)
End Az.
12 mins2025-01-14 11:06:55.983Z178.704° S2025-01-14 11:12:55.983Z215.479° SW44.602°2025-01-14 11:18:55.983Z356.266° N
9 mins2025-01-14 22:10:55.983Z30.395° NE2025-01-14 22:14:55.983Z87.019° E29.624°2025-01-14 22:19:55.983Z146.669° SSE
9 mins2025-01-14 23:55:55.983Z335.07° NNW2025-01-14 23:59:55.983Z280.818° WNW29.151°2025-01-15 00:04:55.983Z221.844° SW
|